Vertical_Velocity
1 1 2 1 -1 -1 -1 -0 0 1 0 0 -1 1 -1 -1 -0 0 -2 -2 0 -2 -1 -1 -0 0 1 -1 1 1 1 -2 -0 0 -1 -2 -2 0 0 -4 -0 -3 6 -0 5 -2 -8 2 0 12 7 4 1 5
2 2 1 1 -0 -0 -0 1 -1 1 0 1 1 -0 -2 -2 0 1 -2 -1 -0 -1 -1 -1 -1 -2 1 -0 1 0 -1 2 -1 -2 -2 -1 -4 3 3 -6 -3 -9 6 -1 11 -26 -4 2 -2 8 3 -1 -3 0
5 6 -1 -1 -1 -0 -0 1 -0 1 3 0 -1 -1 -1 1 -0 -0 -1 -2 -1 -2 1 -1 -1 -1 0 -1 0 -1 1 1 -2 -4 -2 -0 0 5 -1 -4 -1 -5 7 1 17 -7 5 1 8 -1 3 7 -0 7
3 1 -1 0 1 4 2 0 2 -0 1 2 -0 1 0 -1 -0 1 -0 -0 -1 -1 -1 -2 -1 0 0 -0 -1 -1 -1 -1 -2 1 1 -0 8 5 -6 -2 -5 7 2 -2 -6 -1 6 -1 -3 5 -2 11 -8 -2
1 1 -1 -4 -2 2 0 -0 1 -0 -0 0 2 0 0 -1 0 -0 -2 -2 0 -3 -2 -2 0 -2 0 -2 -1 -1 0 -0 -2 -0 -1 0 -4 9 4 3 -16 -2 -3 1 -12 1 14 -5 15 -7 11 -3 1 -2
-3 -3 1 -4 1 -0 -1 1 -0 2 -0 -0 2 2 1 1 -2 -0 1 1 -0 2 1 -3 -3 0 0 0 1 -0 -2 -3 1 2 1 -4 0 6 -1 3 4 2 4 4 -4 -3 -2 24 -6 7 1 5 2 1
-3 -4 2 1 -3 -2 0 1 1 1 1 2 2 2 2 4 -1 -1 -1 -3 2 -0 -1 -3 -6 -7 0 2 2 0 2 -3 6 5 -4 -6 -1 16 15 3 -1 0 1 5 1 4 -9 2 0 -6 3 1 4 6
-5 -1 -2 3 0 -2 1 -1 1 3 2 2 5 2 1 -0 -2 -3 0 -1 -1 1 2 -3 -7 -1 -3 -1 -3 -2 2 3 -0 -0 -4 -0 2 -0 3 -14 0 -1 3 -1 10 2 6 1 3 1 -2 -6 2 1
-8 -3 4 -1 -4 -3 -0 -1 -1 2 0 5 7 8 3 -0 2 -4 7 0 6 7 1 -1 -0 -6 -3 -3 -1 -1 1 -1 -3 1 3 1 1 -3 -8 -5 5 9 3 -1 1 -2 -2 0 -3 -3 -1 2 -4 -4
-6 -3 0 4 -2 1 1 -2 12 6 11 4 16 8 -4 -7 1 -2 11 25 3 -1 7 0 3 -5 -4 1 -4 8 -0 -3 -1 -4 2 -1 1 -0 4 5 2 -1 -1 -2 -3 -1 4 7 3 8 7 4 -1 -1
-5 -4 3 4 3 -2 4 -1 2 23 36 37 3 10 -4 2 3 15 8 8 -2 3 3 -0 -6 3 0 4 5 7 0 -0 1 1 1 1 -9 -5 -2 0 -1 -2 -1 1 4 1 -1 -2 -5 -5 -1 -3 -7 -4
-5 -4 -0 -0 2 -1 2 3 7 12 2 2 7 11 27 14 13 4 7 5 5 -0 -4 -4 -1 -2 12 11 -0 -1 -0 0 1 1 -0 -1 -5 -0 1 -1 2 2 0 -1 -5 -4 -3 -1 -1 -5 -9 -9 -6 -6
-0 -2 1 1 -2 5 -2 -0 11 12 6 17 21 16 10 1 -3 2 -0 1 -4 -2 0 -6 -9 -7 -4 -2 6 -1 1 4 1 1 -2 -6 1 3 0 -0 -1 -3 2 -1 -2 4 3 -3 -1 -1 -7 2 -3 -5
-2 -2 2 -2 -5 7 5 -1 -14 -9 -7 -2 -0 -1 4 -3 1 -3 -4 3 -0 -3 -3 -3 -3 -0 -1 1 1 -0 4 -2 0 -3 -8 0 2 0 -1 -3 -0 1 -4 -1 -1 -1 -3 -5 -5 1 7 5 -5 -5
-1 2 -1 -3 -4 1 5 11 -0 -11 2 -5 -14 -4 -7 -5 -4 -6 -7 -6 -6 -2 1 2 4 2 1 2 1 1 -1 -2 -4 -4 1 1 -1 -4 -5 3 1 -1 -0 1 1 -3 -2 -0 -2 -5 7 1 -3 -5
0 -1 -3 2 -4 -1 -0 3 3 0 13 -1 -1 -3 -1 1 -1 -0 -2 -1 0 1 2 -0 -2 -2 -1 2 -0 -1 -3 -5 -5 2 -1 -3 -5 1 2 -2 -1 -1 -2 -3 0 -1 -1 0 -2 -6 -5 -1 -1 -1
5 -1 -1 1 -2 -1 -1 -4 -2 -2 -2 -4 -1 4 -2 1 1 1 2 2 -0 1 2 1 -0 1 1 1 -6 -7 -5 3 3 -0 -5 -3 -1 1 1 -1 1 -3 -2 2 -5 0 1 -1 -2 -3 -8 4 -1 4
-1 -0 2 1 4 -5 -4 1 -0 -2 -4 -5 3 -2 0 -1 -3 0 2 3 1 0 -1 -2 2 -2 -4 -3 1 3 3 0 -2 -4 -3 -1 -1 -0 -2 -8 -2 -2 -3 -1 1 -1 -2 -5 -3 -0 -1 -4 -1 -0
3 0 -1 5 2 4 0 3 -1 -1 -3 2 2 -3 -3 -3 -1 -1 0 0 -0 -1 -2 -2 -1 -5 3 4 4 3 -1 -2 -5 -7 3 6 -2 -3 0 1 -4 -4 -1 1 0 -2 -2 1 -3 -5 -1 -0 -4 0
7 8 6 1 3 3 1 -1 1 2 -2 -2 -2 -2 -0 1 -3 -4 1 1 -0 -1 -1 -9 1 4 6 5 2 -1 -5 -5 -6 -6 1 13 12 3 0 -6 -3 -2 1 2 1 -1 -3 1 8 1 0 -1 -6 -0
14 10 -2 1 2 2 1 0 -0 -0 -1 -3 -3 -0 -1 0 -1 -1 -0 -3 -3 -8 -6 3 2 2 -4 0 -1 -3 -1 -2 -1 -1 -4 -12 8 2 1 3 -3 1 -4 -3 -7 2 0 -2 -3 0 -2 0 -0 -1
4 11 7 5 5 0 0 -2 -0 -0 -1 -2 -2 -2 -2 -3 -3 -2 -3 -1 -7 5 -3 -2 -0 -1 2 4 2 -2 3 -1 -2 -4 1 -3 -8 1 5 2 -4 -1 2 2 -3 -6 -1 0 -1 -0 -1 -1 0 1
9 5 4 5 1 1 -1 -0 -3 -3 -1 -2 -1 -1 -3 -2 -2 -2 -5 -5 3 0 -5 -5 -2 -0 -2 3 0 4 -1 -4 0 3 2 -3 -2 2 -2 4 1 -6 -3 6 0 -3 -2 -0 -2 -3 -0 0 -1 1
4 -1 -1 -2 -0 -1 -3 -2 -0 1 0 -0 0 0 -2 -4 -3 -4 -9 -0 3 -1 -1 -1 -2 2 -2 -4 -2 1 1 -4 -2 1 1 -5 -4 1 -1 -0 1 -1 -1 -0 2 -1 -1 -1 -1 -0 -0 -1 1 -2
1 -1 -4 -6 -5 -4 -4 -3 -2 -1 -2 -1 -2 -3 -4 -3 -2 -6 -7 3 -6 -3 -3 -3 -3 -7 -7 -4 -1 -2 -0 -0 -3 -5 15 -2 -6 -6 3 4 0 2 -0 -1 2 -2 0 -0 -0 -0 1 -1 -1 -0
-5 -2 1 2 -0 -3 0 0 -1 -2 -2 -1 -1 -2 -2 -2 -3 -8 -8 1 -3 -4 -2 -1 -3 -5 -1 1 -0 1 4 1 -0 -7 6 3 3 -3 -3 -2 0 5 1 2 -1 -1 1 1 0 -0 1 1 0 -3
2 0 -2 -2 -1 -1 -2 0 1 1 -0 0 -1 2 2 -1 -7 -4 -1 -2 0 3 3 5 1 -2 -4 4 -0 4 2 -1 -2 -1 2 2 1 -2 -2 -3 -2 -2 -1 1 2 -0 -1 -0 0 -0 1 3 -1 -2
0 -2 -4 -2 -2 -1 -1 -2 -4 -3 -0 -0 -1 -0 -4 -3 -0 6 4 3 3 -0 -2 3 5 4 -0 1 -1 -1 3 3 1 1 2 1 1 -0 0 -0 -1 -0 0 0 -0 1 -0 -1 -1 0 -0 -1 -1 0
-3 -2 -1 -1 -3 -4 -3 -2 -0 -1 2 -1 -2 3 -1 1 -1 1 0 1 4 2 -0 1 9 6 3 2 -3 -2 -2 -1 -2 -1 -0 3 4 0 -0 -1 -0 -1 -0 1 1 -1 -0 1 1 0 -0 -1 -1 -2
-1 -1 -1 0 1 1 2 -2 0 -1 -2 -1 2 1 5 8 -2 0 -3 -0 0 2 2 0 -2 -2 -3 0 7 5 3 0 -1 -0 0 0 0 1 2 1 0 0 0 -0 1 3 2 1 -0 -2 -1 -0 2 2
2 1 -0 1 -1 3 0 -3 -3 -2 1 1 6 2 5 -1 -4 -5 -2 -1 -5 -4 -5 -2 3 -2 3 8 5 1 -1 1 2 3 3 1 1 1 2 1 -0 0 1 1 0 0 0 0 0 -0 -0 -0 -0 -0
-1 -3 -3 -3 -1 1 2 0 -2 -1 1 2 5 2 2 2 2 0 1 0 -0 -1 -2 -5 -3 -2 1 1 1 1 3 4 4 5 3 3 2 1 -0 -0 -0 -0 -1 0 0 -0 -0 -0 -1 -1 -1 -0 0 0
-0 2 1 -3 -2 -1 -1 -2 -5 -10 -4 -0 -4 -0 2 2 -1 -2 -1 -2 -2 -2 1 -1 -5 -4 -2 0 2 3 3 2 2 3 3 2 2 2 1 -1 -1 0 -1 -1 -1 -1 -0 -1 -1 -0 0 1 0 0
Height
3013 3022 3030 3037 3044 3050 3056 3062 3069 3074 3079 3084 3089 3093 3097 3100 3103 3106 3109 3111 3114 3117 3119 3121 3122 3124 3125 3127 3129 3131 3133 3132 3133 3134 3134 3133 3132 3132 3130 3130 3130 3131 3128 3126 3121 3120 3112 3109 3109 3108 3104 3096 3091 3086
3008 3016 3024 3032 3038 3046 3052 3058 3064 3070 3075 3080 3084 3089 3093 3096 3099 3102 3106 3108 3111 3114 3116 3117 3118 3120 3121 3123 3125 3126 3128 3128 3129 3129 3130 3128 3128 3126 3126 3125 3126 3123 3122 3122 3120 3112 3109 3106 3102 3099 3093 3087 3082 3079
3003 3010 3018 3026 3033 3040 3046 3053 3059 3065 3070 3075 3080 3085 3088 3092 3095 3099 3102 3104 3107 3110 3112 3113 3114 3116 3117 3118 3120 3122 3122 3123 3124 3124 3124 3123 3121 3119 3119 3117 3118 3115 3114 3110 3108 3103 3101 3100 3096 3089 3084 3079 3075 3070
2999 3004 3012 3020 3028 3034 3041 3047 3054 3059 3065 3070 3075 3079 3084 3087 3090 3094 3097 3100 3103 3105 3107 3108 3109 3110 3112 3113 3114 3116 3117 3118 3118 3118 3116 3114 3114 3110 3108 3109 3109 3110 3105 3101 3096 3095 3092 3090 3084 3081 3076 3072 3067 3062
2997 3000 3006 3013 3020 3027 3035 3042 3048 3054 3060 3065 3069 3074 3078 3082 3086 3089 3092 3094 3096 3102 3100 3102 3103 3105 3107 3107 3108 3110 3111 3112 3111 3110 3107 3105 3105 3104 3100 3099 3096 3098 3097 3094 3088 3088 3084 3078 3073 3072 3067 3062 3058 3054
2994 2996 3000 3006 3011 3019 3027 3036 3042 3049 3055 3059 3064 3068 3072 3077 3080 3083 3086 3088 3091 3093 3095 3096 3096 3098 3100 3102 3103 3102 3104 3104 3103 3101 3098 3097 3098 3099 3092 3087 3087 3092 3089 3087 3082 3079 3076 3070 3069 3064 3059 3054 3051 3049
2992 2994 2997 3001 3006 3011 3019 3028 3036 3042 3049 3053 3058 3063 3067 3071 3074 3078 3081 3083 3085 3087 3088 3088 3086 3088 3091 3094 3096 3096 3096 3095 3094 3092 3088 3089 3090 3091 3083 3081 3084 3082 3079 3077 3075 3072 3069 3066 3061 3058 3054 3052 3048 3044
2990 2992 2994 2997 3001 3005 3013 3020 3029 3036 3042 3048 3053 3058 3062 3064 3068 3070 3073 3076 3079 3082 3082 3080 3078 3082 3083 3086 3088 3089 3087 3087 3083 3082 3081 3082 3083 3082 3076 3075 3075 3073 3070 3069 3067 3065 3061 3058 3055 3052 3049 3044 3040 3037
2988 2990 2991 2993 2996 3001 3006 3013 3021 3029 3035 3042 3048 3051 3055 3057 3059 3062 3069 3072 3073 3077 3073 3069 3070 3074 3075 3079 3080 3079 3078 3077 3077 3075 3075 3075 3071 3070 3069 3069 3067 3067 3066 3063 3060 3057 3055 3051 3048 3046 3042 3038 3033 3027
2987 2989 2989 2991 2993 2997 3001 3006 3013 3021 3027 3033 3038 3043 3044 3048 3053 3058 3063 3064 3065 3064 3062 3061 3063 3067 3072 3071 3071 3074 3071 3071 3068 3067 3068 3064 3061 3062 3062 3059 3057 3057 3057 3055 3054 3052 3049 3046 3042 3038 3034 3029 3023 3017
2985 2988 2989 2989 2990 2995 2998 3002 3007 3013 3020 3022 3026 3031 3036 3041 3045 3048 3051 3052 3054 3053 3053 3053 3058 3061 3063 3066 3066 3065 3063 3064 3061 3060 3061 3055 3053 3056 3054 3054 3053 3051 3051 3050 3048 3046 3043 3039 3035 3030 3026 3022 3016 3009
2983 2986 2988 2989 2989 2992 2996 2999 3002 3005 3008 3014 3020 3025 3029 3032 3035 3040 3039 3042 3041 3044 3046 3049 3053 3056 3059 3059 3060 3060 3060 3059 3055 3053 3053 3049 3050 3049 3048 3047 3047 3047 3046 3044 3043 3041 3037 3033 3028 3022 3016 3010 3004 2999
2981 2985 2987 2989 2990 2992 2994 2997 3000 3002 3004 3010 3014 3016 3019 3023 3026 3029 3029 3032 3035 3037 3042 3044 3049 3052 3053 3054 3055 3055 3054 3051 3050 3049 3046 3045 3044 3044 3044 3045 3044 3042 3041 3039 3038 3034 3029 3024 3019 3012 3006 3000 2994 2989
2978 2983 2986 2987 2991 2993 2995 2997 2999 3002 3007 3008 3010 3013 3016 3018 3022 3024 3029 3032 3034 3036 3039 3042 3045 3047 3046 3048 3048 3048 3047 3047 3045 3043 3041 3040 3040 3040 3040 3041 3039 3037 3035 3033 3029 3024 3018 3013 3008 3004 2998 2991 2985 2980
2976 2980 2983 2987 2990 2994 2996 2999 3001 3004 3006 3009 3012 3014 3016 3018 3020 3024 3028 3029 3031 3033 3035 3038 3039 3041 3042 3043 3042 3041 3041 3040 3039 3037 3036 3037 3037 3037 3037 3034 3033 3031 3027 3023 3019 3014 3009 3004 2999 2995 2991 2984 2978 2973
2972 2977 2981 2986 2989 2993 2996 2999 3001 3004 3006 3010 3013 3015 3017 3019 3021 3023 3025 3027 3029 3029 3031 3033 3034 3036 3037 3037 3035 3035 3036 3033 3033 3032 3032 3034 3034 3033 3031 3029 3026 3022 3018 3014 3009 3004 3000 2996 2991 2987 2983 2978 2972 2966
2969 2975 2979 2984 2987 2991 2995 2999 3002 3003 3007 3008 3012 3013 3016 3019 3020 3021 3023 3024 3026 3027 3028 3030 3030 3031 3030 3030 3031 3030 3029 3028 3027 3027 3028 3029 3027 3026 3024 3021 3017 3013 3010 3005 3001 2997 2993 2989 2984 2980 2976 2971 2965 2959
2969 2974 2979 2982 2986 2989 2993 2997 3000 3003 3004 3007 3009 3011 3014 3016 3019 3021 3021 3022 3023 3023 3024 3026 3026 3025 3026 3025 3024 3025 3024 3024 3023 3023 3022 3021 3020 3018 3014 3011 3008 3005 3001 2997 2993 2989 2985 2981 2977 2973 2968 2962 2957 2951
2969 2973 2977 2981 2985 2989 2993 2996 2998 2999 3002 3005 3006 3009 3011 3013 3015 3017 3017 3018 3018 3019 3020 3020 3021 3019 3019 3020 3019 3020 3020 3020 3017 3016 3014 3013 3010 3008 3005 3002 2999 2997 2993 2989 2986 2982 2978 2974 2969 2965 2960 2955 2949 2944
2966 2971 2976 2980 2984 2987 2990 2993 2996 2998 3001 3003 3004 3006 3008 3010 3011 3013 3014 3014 3014 3014 3014 3013 3014 3016 3017 3016 3015 3014 3013 3011 3009 3007 3007 3005 3002 2999 2996 2994 2991 2988 2985 2982 2978 2975 2971 2966 2962 2956 2951 2947 2942 2938
2964 2968 2974 2978 2982 2986 2989 2990 2993 2996 2998 3000 3003 3004 3005 3006 3007 3009 3010 3010 3010 3008 3007 3010 3011 3011 3009 3008 3006 3004 3004 3002 3001 3000 2996 2994 2992 2989 2987 2984 2982 2980 2977 2973 2970 2966 2962 2957 2953 2948 2943 2940 2935 2931
2963 2969 2973 2978 2981 2985 2987 2989 2992 2994 2997 2998 2999 2999 3000 3002 3004 3004 3005 3004 3003 3004 3004 3004 3004 3003 3002 3000 2999 2998 2997 2996 2994 2991 2989 2986 2983 2981 2979 2977 2974 2972 2969 2965 2961 2956 2952 2948 2944 2940 2936 2932 2927 2923
2963 2968 2973 2977 2981 2984 2987 2988 2990 2992 2993 2994 2995 2996 2997 2999 2999 3000 3000 2999 3000 3000 2999 2999 2999 2998 2996 2994 2992 2991 2989 2987 2985 2983 2981 2978 2976 2974 2972 2970 2967 2963 2959 2955 2951 2947 2943 2939 2935 2931 2927 2924 2919 2916
2967 2970 2973 2977 2979 2981 2984 2985 2987 2989 2989 2991 2992 2993 2994 2995 2996 2995 2994 2995 2997 2996 2995 2994 2992 2991 2989 2987 2985 2983 2981 2979 2977 2975 2973 2970 2968 2967 2965 2962 2958 2953 2949 2945 2942 2938 2934 2931 2927 2924 2920 2916 2912 2908
2968 2972 2975 2975 2978 2980 2982 2983 2984 2985 2986 2988 2989 2990 2991 2992 2992 2990 2989 2991 2991 2990 2989 2987 2986 2984 2981 2979 2977 2976 2974 2971 2969 2966 2966 2963 2960 2957 2955 2952 2948 2944 2940 2936 2933 2929 2926 2923 2919 2916 2912 2908 2904 2901
2967 2970 2972 2973 2974 2977 2978 2980 2981 2982 2984 2986 2987 2987 2988 2988 2988 2986 2984 2985 2984 2982 2981 2979 2977 2976 2974 2972 2969 2967 2965 2962 2959 2957 2956 2954 2950 2947 2944 2942 2939 2936 2931 2928 2924 2921 2918 2915 2911 2908 2904 2901 2897 2894
2966 2967 2970 2972 2974 2976 2977 2978 2980 2981 2982 2983 2984 2984 2984 2983 2981 2981 2980 2978 2977 2976 2974 2972 2969 2966 2964 2962 2959 2957 2954 2952 2950 2948 2946 2943 2940 2937 2934 2932 2929 2925 2921 2918 2915 2912 2909 2906 2903 2900 2897 2894 2890 2887
2965 2967 2970 2972 2973 2974 2975 2977 2978 2979 2979 2979 2979 2979 2978 2977 2976 2975 2973 2971 2969 2966 2963 2961 2958 2955 2953 2951 2948 2945 2944 2942 2939 2937 2935 2932 2929 2926 2924 2921 2918 2915 2912 2909 2906 2904 2901 2898 2896 2893 2890 2887 2884 2881
2966 2967 2969 2970 2971 2971 2972 2973 2973 2973 2974 2973 2972 2971 2969 2968 2965 2963 2961 2958 2955 2952 2949 2946 2944 2942 2940 2938 2935 2933 2931 2929 2927 2925 2923 2921 2919 2917 2914 2911 2908 2906 2904 2902 2899 2896 2894 2891 2888 2886 2883 2880 2877 2873
2964 2964 2965 2965 2966 2966 2967 2967 2966 2966 2965 2964 2963 2962 2961 2958 2953 2951 2948 2945 2942 2938 2934 2930 2926 2924 2923 2924 2923 2921 2919 2918 2916 2914 2912 2910 2909 2907 2905 2903 2901 2898 2896 2894 2893 2891 2888 2885 2882 2879 2876 2873 2870 2867
2959 2959 2960 2960 2960 2961 2960 2959 2958 2958 2957 2956 2955 2952 2950 2946 2943 2940 2939 2936 2931 2927 2923 2919 2916 2913 2912 2911 2910 2909 2908 2907 2905 2904 2903 2901 2900 2898 2897 2895 2894 2892 2890 2888 2886 2883 2880 2878 2875 2872 2869 2866 2862 2859
2956 2955 2955 2955 2955 2954 2953 2952 2951 2950 2949 2948 2947 2944 2941 2937 2935 2934 2931 2928 2923 2918 2914 2911 2909 2906 2903 2901 2900 2899 2898 2897 2896 2894 2893 2892 2891 2890 2890 2888 2887 2885 2883 2880 2878 2875 2872 2870 2867 2864 2861 2858 2856 2853
2952 2951 2950 2948 2948 2947 2947 2945 2942 2941 2940 2939 2936 2934 2932 2931 2929 2926 2923 2920 2917 2913 2909 2906 2904 2901 2898 2896 2894 2892 2890 2889 2888 2887 2886 2886 2884 2883 2882 2881 2879 2877 2875 2872 2870 2867 2865 2862 2860 2857 2854 2851 2848 2845